Date String (YYYY-MM-DD hh:mm:ss) UTC,Instrument flags,Ambient pressure (hPa),Sample flow (lpm),Bypass flow (lpm),Sample temperature (°C),Ambient temperature (°C),ASC tube jacket temperature (°C),LED temperature (°C),Box temperature (°C),Sample RH (%),Span deviation,Mass concentration (μg/m³),Mass concentration (μg/m³),Mass concentration (μg/m³)
DateTimeUTC,F1_M11,P_M11,Q1_M11,Q2_M11,T1_M11,T2_M11,T3_M11,T4_M11,T5_M11,U1_M11,ZSPAN_M11,X0_M11,X2_M11,X1_M11
2022-07-07 19:00:00,,0829.1,5.01,0.00,29.8,27.4,00.0,38.6,31.4,25.6,0000.0,0011.06,0004.47,0003.79
2022-07-07 19:01:00,,0828.5,5.00,0.00,29.8,27.6,00.0,38.6,31.4,25.8,0000.0,0012.40,0004.44,0003.76
2022-07-07 19:02:00,,0828.5,4.99,0.00,29.8,27.8,00.0,38.6,31.5,26.6,0000.0,0012.64,0004.35,0003.69
2022-07-07 19:03:00,,0828.5,5.01,0.00,29.8,28.0,00.0,38.6,31.5,26.4,0000.0,0013.03,0004.23,0003.62
2022-07-07 19:04:00,,0828.7,5.00,0.00,29.8,28.1,00.0,38.6,31.6,25.1,0000.0,0012.88,0004.14,0003.55
2022-07-07 19:05:00,,0828.9,5.01,0.00,29.9,28.1,00.0,38.5,31.6,24.8,0000.0,0012.93,0004.12,0003.50
2022-07-07 19:06:00,,0828.5,5.00,0.00,29.9,27.6,00.0,38.5,31.5,24.7,0000.0,0013.05,0004.14,0003.48
2022-07-07 19:07:00,,0828.5,4.99,0.00,29.8,27.2,00.0,38.4,31.4,24.9,0000.0,0013.23,0004.17,0003.46
2022-07-07 19:08:00,,0828.5,5.00,0.00,29.8,27.1,00.0,38.4,31.4,24.8,0000.0,0013.72,0004.14,0003.42
2022-07-07 19:09:00,,0828.5,5.00,0.00,29.7,27.2,00.0,38.4,31.3,24.2,0000.0,0013.58,0004.05,0003.37
2022-07-07 19:10:00,,0828.5,5.00,0.00,29.7,27.3,00.0,38.4,31.3,25.0,0000.0,0013.01,0004.02,0003.32
2022-07-07 19:11:00,,0828.5,5.00,0.00,29.7,27.5,00.0,38.4,31.3,25.8,0000.0,0012.31,0003.99,0003.28
2022-07-07 19:12:00,,0828.5,5.00,0.00,29.7,27.7,00.0,38.4,31.4,26.7,0000.0,0011.18,0003.92,0003.23
2022-07-07 19:13:00,,0828.5,5.00,0.00,29.7,27.9,00.0,38.4,31.4,25.7,0000.0,0010.99,0003.89,0003.21
2022-07-07 19:14:00,,0828.5,4.99,0.00,29.7,28.1,00.0,38.4,31.5,24.4,0000.0,0010.59,0003.91,0003.20
2022-07-07 19:15:00,,0828.5,5.00,0.00,29.7,28.3,00.0,38.4,31.6,23.7,0000.0,0010.39,0003.90,0003.18
2022-07-07 19:16:00,,0828.7,4.99,0.00,29.7,28.1,00.0,38.4,31.6,23.2,0000.0,0011.17,0003.86,0003.15
2022-07-07 19:17:00,,0828.5,5.00,0.00,29.7,27.5,00.0,38.3,31.5,23.5,0000.0,0012.96,0003.80,0003.13
2022-07-07 19:18:00,,0828.5,5.01,0.00,29.7,27.2,00.0,38.3,31.4,24.4,0000.0,0013.60,0003.72,0003.07
2022-07-07 19:19:00,,0828.4,4.99,0.00,29.6,27.2,00.0,38.3,31.3,27.0,0000.0,0013.84,0003.64,0003.04
2022-07-07 19:20:00,,0828.4,5.00,0.00,29.6,27.3,00.0,38.3,31.2,27.5,0000.0,0013.47,0003.64,0003.07
2022-07-07 19:21:00,,0828.4,5.00,0.00,29.5,27.4,00.0,38.3,31.3,28.2,0000.0,0013.53,0003.66,0003.10
2022-07-07 19:22:00,,0828.4,4.99,0.00,29.5,27.6,00.0,38.3,31.3,28.3,0000.0,0013.38,0003.70,0003.11
2022-07-07 19:23:00,,0828.5,5.00,0.00,29.6,27.8,00.0,38.3,31.4,28.1,0000.0,0012.97,0003.72,0003.12
2022-07-07 19:24:00,,0828.5,5.01,0.00,29.6,28.0,00.0,38.3,31.4,25.3,0000.0,0012.78,0003.72,0003.12
2022-07-07 19:25:00,,0828.4,5.00,0.00,29.6,28.1,00.0,38.3,31.5,25.5,0000.0,0012.92,0003.68,0003.09
2022-07-07 19:26:00,,0828.5,5.00,0.00,29.6,27.7,00.0,38.2,31.4,24.4,0000.0,0012.43,0003.66,0003.06
2022-07-07 19:27:00,,0828.5,5.00,0.00,29.6,27.2,00.0,38.2,31.4,24.5,0000.0,0011.95,0003.66,0003.08
2022-07-07 19:28:00,,0828.5,4.99,0.00,29.5,27.1,00.0,38.2,31.3,25.3,0000.0,0010.89,0003.69,0003.07
2022-07-07 19:29:00,,0828.5,4.99,0.00,29.5,27.1,00.0,38.2,31.2,25.3,0000.0,0010.44,0003.68,0003.07
2022-07-07 19:30:00,,0828.5,5.00,0.00,29.4,27.3,00.0,38.2,31.2,24.4,0000.0,0009.71,0003.70,0003.05
2022-07-07 19:31:00,,0828.7,5.00,0.00,29.4,27.5,00.0,38.2,31.2,23.8,0000.0,0009.83,0003.69,0002.98
2022-07-07 19:32:00,,0828.5,4.99,0.00,29.4,27.7,00.0,38.2,31.3,24.1,0000.0,0009.86,0003.65,0002.91
2022-07-07 19:33:00,,0828.5,5.00,0.00,29.5,27.9,00.0,38.2,31.3,24.0,0000.0,0010.95,0003.60,0002.84
2022-07-07 19:34:00,,0829.0,5.00,0.00,29.5,28.0,00.0,38.2,31.4,23.2,0000.0,0011.02,0003.55,0002.77
2022-07-07 19:35:00,,0828.7,5.00,0.00,29.5,28.2,00.0,38.2,31.5,23.5,0000.0,0011.37,0003.53,0002.74
2022-07-07 19:36:00,,0828.4,5.00,0.00,29.5,27.8,00.0,38.2,31.4,25.1,0000.0,0011.76,0003.55,0002.73
2022-07-07 19:37:00,,0828.5,5.00,0.00,29.5,27.3,00.0,38.1,31.3,27.3,0000.0,0011.85,0003.59,0002.77
2022-07-07 19:38:00,,0828.7,5.00,0.00,29.5,27.1,00.0,38.1,31.3,27.2,0000.0,0011.81,0003.62,0002.78
2022-07-07 19:39:00,,0828.7,5.00,0.00,29.4,27.1,00.0,38.1,31.2,27.0,0000.0,0012.25,0003.62,0002.82
2022-07-07 19:40:00,,0828.7,4.99,0.00,29.4,27.3,00.0,38.1,31.2,26.8,0000.0,0012.18,0003.66,0002.85
2022-07-07 19:41:00,,0828.5,5.01,0.00,29.4,27.5,00.0,38.1,31.2,27.2,0000.0,0011.88,0003.70,0002.88
2022-07-07 19:42:00,,0828.5,5.00,0.00,29.4,27.6,00.0,38.1,31.2,28.2,0000.0,0012.68,0003.74,0002.95
2022-07-07 19:43:00,,0828.5,5.00,0.00,29.4,27.8,00.0,38.1,31.3,28.6,0000.0,0012.71,0003.77,0003.02
2022-07-07 19:44:00,,0828.5,5.00,0.00,29.4,28.0,00.0,38.1,31.4,29.0,0000.0,0011.54,0003.80,0003.09
2022-07-07 19:45:00,,0828.5,4.99,0.00,29.4,27.7,00.0,38.1,31.3,28.9,0000.0,0011.85,0003.84,0003.15
2022-07-07 19:46:00,,0828.6,5.00,0.00,29.4,27.1,00.0,38.0,31.2,28.5,0000.0,0011.89,0003.88,0003.20
2022-07-07 19:47:00,,0828.6,5.01,0.00,29.4,26.9,00.0,38.0,31.2,28.4,0000.0,0011.41,0003.91,0003.23
2022-07-07 19:48:00,,0828.7,4.99,0.00,29.3,26.9,00.0,38.0,31.1,28.6,0000.0,0012.22,0003.93,0003.26
2022-07-07 19:49:00,,0828.8,4.99,0.00,29.3,27.1,00.0,38.0,31.0,28.8,0000.0,0013.36,0003.95,0003.27
2022-07-07 19:50:00,,0828.9,5.00,0.00,29.2,27.3,00.0,38.0,31.1,28.3,0000.0,0012.40,0003.93,0003.27
2022-07-07 19:51:00,,0829.0,4.96,0.00,29.2,27.4,00.0,38.0,31.1,27.8,0000.0,0012.08,0003.91,0003.27
2022-07-07 19:52:00,,0828.9,5.00,0.00,29.3,27.7,00.0,38.0,31.2,27.7,0000.0,0012.42,0003.91,0003.28
2022-07-07 19:53:00,,0829.0,5.00,0.00,29.3,27.8,00.0,38.0,31.2,28.0,0000.0,0012.27,0003.93,0003.28
2022-07-07 19:54:00,,0829.2,5.01,0.00,29.3,27.6,00.0,38.0,31.2,28.0,0000.0,0011.56,0003.93,0003.28
2022-07-07 19:55:00,,0829.2,5.01,0.00,29.3,27.0,00.0,37.9,31.1,28.0,0000.0,0011.57,0003.89,0003.27
2022-07-07 19:56:00,,0829.0,4.99,0.00,29.3,26.7,00.0,37.9,31.1,27.6,0000.0,0011.69,0003.87,0003.25
2022-07-07 19:57:00,,0828.7,5.00,0.00,29.2,26.8,00.0,37.9,30.9,27.8,0000.0,0011.55,0003.84,0003.22
2022-07-07 19:58:00,,0828.9,5.00,0.00,29.1,26.9,00.0,37.9,30.9,28.7,0000.0,0011.69,0003.80,0003.21
2022-07-07 19:59:00,,0828.7,5.00,0.00,29.1,27.1,00.0,37.9,30.9,30.4,0000.0,0011.55,0003.83,0003.22
